| time (UTC) | temp F | wind direction | speed knots | gust knots | rain 1hr in | rain 24hr in | rain mn in | humidity % | barometer mb |
| 20260510044840 | 45 | 300 | 0.0 | 0.0 | 0.00 | 0.00 | 0.00 | 95 | 1041.3 |
| 20260510044337 | 45 | 301 | 0.0 | 1.7 | 0.00 | 0.00 | 0.00 | 95 | 1041.4 |
| 20260510043834 | 46 | 280 | 0.0 | 0.0 | 0.00 | 0.00 | 0.00 | 95 | 1041.7 |
| 20260510043330 | 47 | 277 | 0.0 | 2.6 | 0.00 | 0.00 | 0.00 | 95 | 1041.7 |
| 20260510042828 | 47 | 239 | 0.9 | 0.9 | 0.00 | 0.00 | 0.00 | 95 | 1041.4 |
| 20260510042324 | 47 | 270 | 0.0 | 1.7 | 0.00 | 0.00 | 0.00 | 95 | 1041.5 |
| 20260510041820 | 47 | 324 | 1.7 | 7.0 | 0.00 | 0.00 | 0.00 | 95 | 1041.3 |
| 20260510041317 | 47 | 284 | 0.0 | 1.7 | 0.00 | 0.00 | 0.00 | 95 | 1041.2 |
| 20260510040815 | 47 | 298 | 0.9 | 1.7 | 0.00 | 0.00 | 0.00 | 95 | 1040.9 |
| 20260510040311 | 47 | 323 | 2.6 | 3.5 | 0.00 | 0.00 | 0.00 | 95 | 1041.1 |
| 20260510035806 | 47 | 323 | 3.5 | 5.2 | 0.00 | 0.53 | 0.53 | 95 | 1040.9 |
| 20260510035306 | 47 | 303 | 1.7 | 2.6 | 0.00 | 0.53 | 0.53 | 95 | 1040.4 |
| 20260510034758 | 47 | 317 | 2.6 | 3.5 | 0.00 | 0.53 | 0.53 | 95 | 1040.7 |
| 20260510034256 | 47 | 305 | 0.0 | 0.0 | 0.00 | 0.53 | 0.53 | 95 | 1040.6 |
| 20260510033752 | 47 | 302 | 1.7 | 2.6 | 0.00 | 0.53 | 0.53 | 95 | 1040.7 |
| 20260510033250 | 48 | 292 | 0.9 | 0.9 | 0.00 | 0.53 | 0.53 | 95 | 1040.9 |
| 20260510032746 | 48 | 294 | 0.0 | 0.9 | 0.00 | 0.53 | 0.53 | 95 | 1040.9 |
| 20260510032242 | 48 | 288 | 0.0 | 1.7 | 0.00 | 0.53 | 0.53 | 95 | 1040.7 |
| 20260510031738 | 48 | 299 | 0.9 | 1.7 | 0.00 | 0.53 | 0.53 | 95 | 1040.7 |
| 20260510031234 | 48 | 298 | 0.9 | 1.7 | 0.00 | 0.53 | 0.53 | 95 | 1040.9 |
| 20260510030733 | 48 | 299 | 1.7 | 1.7 | 0.00 | 0.53 | 0.53 | 95 | 1040.5 |
| 20260510030231 | 48 | 311 | 1.7 | 2.6 | 0.00 | 0.53 | 0.53 | 95 | 1040.7 |
| 20260510025728 | 48 | 297 | 0.9 | 0.9 | 0.00 | 0.53 | 0.53 | 95 | 1040.8 |
| 20260510025226 | 48 | 297 | 0.9 | 1.7 | 0.00 | 0.53 | 0.53 | 95 | 1040.8 |
| 20260510024722 | 49 | 292 | 0.0 | 0.0 | 0.00 | 0.53 | 0.53 | 95 | 1040.6 |
| 20260510024219 | 49 | 295 | 0.9 | 1.7 | 0.00 | 0.53 | 0.53 | 95 | 1040.7 |
| 20260510023714 | 48 | 293 | 0.9 | 1.7 | 0.00 | 0.53 | 0.53 | 95 | 1040.9 |
| 20260510023212 | 48 | 290 | 0.9 | 0.9 | 0.00 | 0.53 | 0.53 | 95 | 1040.8 |
| 20260510022707 | 48 | 286 | 0.9 | 1.7 | 0.00 | 0.53 | 0.53 | 95 | 1040.7 |
| 20260510022156 | 48 | 317 | 1.7 | 2.6 | 0.00 | 0.53 | 0.53 | 95 | 1040.7 |
| 20260510021652 | 49 | 285 | 0.0 | 0.9 | 0.00 | 0.53 | 0.53 | 95 | 1040.6 |
| 20260510021149 | 49 | 248 | 0.9 | 1.7 | 0.00 | 0.53 | 0.53 | 95 | 1040.7 |
| 20260510020644 | 50 | 285 | 0.0 | 0.0 | 0.00 | 0.53 | 0.53 | 94 | 1040.7 |
| 20260510020140 | 50 | 282 | 0.0 | 0.0 | 0.00 | 0.53 | 0.53 | 95 | 1040.9 |
| 20260510015636 | 50 | 283 | 0.0 | 0.9 | 0.00 | 0.53 | 0.53 | 95 | 1040.9 |
| 20260510015133 | 49 | 294 | 0.9 | 1.7 | 0.00 | 0.53 | 0.53 | 94 | 1040.7 |
| 20260510014627 | 49 | 286 | 0.9 | 2.6 | 0.00 | 0.53 | 0.53 | 94 | 1040.8 |
| 20260510014125 | 49 | 300 | 1.7 | 2.6 | 0.00 | 0.53 | 0.53 | 94 | 1040.7 |
| 20260510013619 | 50 | 315 | 2.6 | 2.6 | 0.00 | 0.53 | 0.53 | 94 | 1040.6 |
| 20260510013115 | 50 | 290 | 0.9 | 0.9 | 0.00 | 0.53 | 0.53 | 94 | 1040.4 |
| 20260510012614 | 51 | 282 | 0.0 | 1.7 | 0.00 | 0.53 | 0.53 | 93 | 1040.6 |
| 20260510012111 | 51 | 301 | 1.7 | 1.7 | 0.00 | 0.53 | 0.53 | 93 | 1040.5 |
| 20260510011610 | 51 | 280 | 0.9 | 1.7 | 0.00 | 0.53 | 0.53 | 93 | 1040.5 |
| 20260510011106 | 51 | 281 | 0.9 | 0.9 | 0.00 | 0.53 | 0.53 | 93 | 1040.5 |
| 20260510010603 | 51 | 272 | 0.9 | 0.9 | 0.00 | 0.53 | 0.53 | 93 | 1040.5 |
| 20260510010100 | 51 | 276 | 0.9 | 0.9 | 0.00 | 0.53 | 0.53 | 92 | 1040.3 |
| 20260510005555 | 51 | 287 | 0.9 | 0.9 | 0.00 | 0.53 | 0.53 | 92 | 1040.3 |
| 20260510005054 | 52 | 275 | 0.0 | 0.9 | 0.00 | 0.53 | 0.53 | 91 | 1040.2 |
| 20260510004552 | 52 | 262 | 0.0 | 0.9 | 0.00 | 0.53 | 0.53 | 91 | 1040.5 |
| 20260510004049 | 53 | 250 | 0.9 | 1.7 | 0.00 | 0.53 | 0.53 | 91 | 1040.3 |
| 20260510003545 | 53 | 248 | 0.9 | 1.7 | 0.00 | 0.53 | 0.53 | 90 | 1040.2 |
| 20260510003041 | 53 | 221 | 1.7 | 1.7 | 0.00 | 0.53 | 0.53 | 90 | 1040.1 |
| 20260510002536 | 53 | 235 | 1.7 | 1.7 | 0.00 | 0.53 | 0.53 | 90 | 1040.3 |
| 20260510002034 | 53 | 239 | 0.9 | 1.7 | 0.00 | 0.53 | 0.53 | 90 | 1040.3 |
| 20260510001531 | 53 | 258 | 1.7 | 2.6 | 0.00 | 0.53 | 0.53 | 90 | 1040.2 |
| 20260510001030 | 53 | 257 | 0.9 | 1.7 | 0.00 | 0.53 | 0.53 | 90 | 1040.1 |
| 20260510000530 | 53 | 264 | 1.7 | 3.5 | 0.00 | 0.53 | 0.53 | 91 | 1040.3 |
| 20260510000027 | 53 | 274 | 0.0 | 0.9 | 0.00 | 0.53 | 0.53 | 90 | 1040.1 |
| 20260509235523 | 53 | 269 | 0.0 | 0.9 | 0.00 | 0.53 | 0.53 | 90 | 1040.1 |
| 20260509235021 | 54 | 265 | 0.0 | 1.7 | 0.00 | 0.53 | 0.53 | 89 | 1039.8 |
| 20260509234517 | 54 | 244 | 1.7 | 2.6 | 0.00 | 0.53 | 0.53 | 89 | 1039.7 |
| 20260509234016 | 54 | 210 | 2.6 | 3.5 | 0.00 | 0.53 | 0.53 | 89 | 1039.8 |
| 20260509233513 | 54 | 232 | 0.9 | 3.5 | 0.00 | 0.53 | 0.53 | 89 | 1039.6 |
| 20260509233010 | 54 | 253 | 0.9 | 5.2 | 0.00 | 0.53 | 0.53 | 88 | 1039.6 |
| 20260509232507 | 55 | 262 | 0.9 | 2.6 | 0.00 | 0.53 | 0.53 | 88 | 1039.7 |
| 20260509232003 | 55 | 236 | 1.7 | 2.6 | 0.00 | 0.53 | 0.53 | 88 | 1039.6 |
| 20260509231459 | 55 | 260 | 1.7 | 5.2 | 0.00 | 0.53 | 0.53 | 87 | 1039.7 |
| 20260509230957 | 55 | 267 | 5.2 | 7.8 | 0.00 | 0.53 | 0.53 | 86 | 1039.6 |
| 20260509230454 | 55 | 268 | 2.6 | 6.1 | 0.00 | 0.53 | 0.53 | 87 | 1039.4 |
| 20260509225950 | 55 | 247 | 3.5 | 6.1 | 0.00 | 0.53 | 0.53 | 87 | 1039.5 |
| 20260509225446 | 55 | 233 | 2.6 | 3.5 | 0.00 | 0.53 | 0.53 | 88 | 1039.3 |
| 20260509224942 | 56 | 221 | 4.3 | 6.1 | 0.00 | 0.53 | 0.53 | 88 | 1039.2 |
| 20260509224438 | 55 | 254 | 3.5 | 6.1 | 0.00 | 0.53 | 0.53 | 89 | 1039.3 |
| 20260509223935 | 55 | 257 | 3.5 | 6.1 | 0.00 | 0.53 | 0.53 | 90 | 1039.4 |
| 20260509223431 | 55 | 237 | 2.6 | 3.5 | 0.00 | 0.53 | 0.53 | 90 | 1039.1 |
| 20260509222929 | 55 | 251 | 4.3 | 6.1 | 0.00 | 0.53 | 0.53 | 90 | 1039.4 |
| 20260509222424 | 54 | 261 | 0.9 | 2.6 | 0.00 | 0.53 | 0.53 | 91 | 1039.3 |
| 20260509221920 | 54 | 254 | 1.7 | 5.2 | 0.00 | 0.53 | 0.53 | 91 | 1039.5 |
| 20260509221417 | 54 | 271 | 0.9 | 3.5 | 0.00 | 0.53 | 0.53 | 91 | 1039.6 |
| 20260509220913 | 54 | 255 | 1.7 | 2.6 | 0.00 | 0.53 | 0.53 | 92 | 1039.7 |
| 20260509220409 | 53 | 253 | 2.6 | 5.2 | 0.00 | 0.53 | 0.53 | 93 | 1039.6 |
| 20260509215905 | 53 | 251 | 1.7 | 3.5 | 0.00 | 0.53 | 0.53 | 93 | 1039.8 |
| 20260509215401 | 53 | 251 | 1.7 | 5.2 | 0.00 | 0.53 | 0.53 | 94 | 1039.7 |
| 20260509214858 | 53 | 253 | 1.7 | 3.5 | 0.00 | 0.53 | 0.53 | 94 | 1039.9 |
| 20260509214355 | 53 | 214 | 2.6 | 6.1 | 0.00 | 0.53 | 0.53 | 94 | 1039.9 |
| 20260509213852 | 53 | 223 | 4.3 | 6.1 | 0.00 | 0.53 | 0.53 | 94 | 1040.0 |
| 20260509213347 | 53 | 243 | 1.7 | 6.1 | 0.00 | 0.53 | 0.53 | 94 | 1040.0 |
| 20260509212846 | 53 | 220 | 3.5 | 5.2 | 0.00 | 0.53 | 0.53 | 94 | 1040.2 |
| 20260509212343 | 52 | 229 | 1.7 | 7.0 | 0.00 | 0.53 | 0.53 | 94 | 1040.0 |
| 20260509211839 | 52 | 233 | 1.7 | 3.5 | 0.00 | 0.53 | 0.53 | 95 | 1040.0 |
| 20260509211334 | 52 | 230 | 1.7 | 2.6 | 0.00 | 0.53 | 0.53 | 95 | 1040.2 |
| 20260509210831 | 52 | 240 | 1.7 | 6.1 | 0.00 | 0.53 | 0.53 | 94 | 1040.1 |
| 20260509210329 | 52 | 208 | 0.9 | 2.6 | 0.07 | 0.53 | 0.53 | 94 | 1040.1 |
| 20260509205828 | 52 | 228 | 2.6 | 6.1 | 0.07 | 0.53 | 0.53 | 94 | 1040.2 |
| 20260509205323 | 53 | 256 | 4.3 | 6.1 | 0.05 | 0.52 | 0.52 | 94 | 1040.2 |
| 20260509204820 | 53 | 231 | 3.5 | 5.2 | 0.00 | 0.51 | 0.51 | 94 | 1040.2 |
| 20260509204316 | 53 | 239 | 3.5 | 7.0 | 0.00 | 0.51 | 0.51 | 94 | 1040.1 |
| 20260509203813 | 52 | 243 | 1.7 | 6.1 | 0.00 | 0.51 | 0.51 | 94 | 1040.4 |
| 20260509203310 | 52 | 201 | 4.3 | 6.1 | 0.00 | 0.51 | 0.51 | 94 | 1040.0 |
| 20260509202806 | 52 | 243 | 3.5 | 5.2 | 0.00 | 0.51 | 0.51 | 94 | 1040.1 |
| 20260509202306 | 52 | 221 | 2.6 | 6.1 | 0.00 | 0.51 | 0.51 | 94 | 1040.1 |
| 20260509201801 | 52 | 221 | 4.3 | 7.0 | 0.07 | 0.51 | 0.51 | 94 | 1040.0 |
| 20260509201259 | 52 | 244 | 2.6 | 5.2 | 0.07 | 0.51 | 0.51 | 94 | 1040.2 |
| 20260509200755 | 52 | 207 | 3.5 | 6.1 | 0.00 | 0.50 | 0.50 | 94 | 1040.4 |
| 20260509200250 | 52 | 245 | 0.9 | 3.5 | 0.07 | 0.50 | 0.50 | 94 | 1040.5 |
| 20260509195747 | 51 | 259 | 3.5 | 7.8 | 0.00 | 0.49 | 0.49 | 94 | 1040.6 |
| 20260509195242 | 52 | 200 | 4.3 | 6.1 | 0.05 | 0.49 | 0.49 | 94 | 1040.6 |
| 20260509194736 | 51 | 213 | 5.2 | 7.0 | 0.05 | 0.49 | 0.49 | 95 | 1040.8 |
| 20260509194233 | 51 | 208 | 2.6 | 7.0 | 0.07 | 0.48 | 0.48 | 95 | 1040.7 |
| 20260509193730 | 52 | 236 | 3.5 | 6.1 | 0.07 | 0.48 | 0.48 | 94 | 1040.7 |
| 20260509193229 | 51 | 253 | 5.2 | 7.0 | 0.00 | 0.47 | 0.47 | 94 | 1041.0 |
| 20260509192726 | 51 | 245 | 4.3 | 7.0 | 0.05 | 0.47 | 0.47 | 94 | 1041.1 |
| 20260509192221 | 51 | 247 | 3.5 | 6.1 | 0.00 | 0.46 | 0.46 | 93 | 1040.8 |
| 20260509191716 | 52 | 249 | 3.5 | 6.1 | 0.00 | 0.46 | 0.46 | 93 | 1040.9 |
| 20260509191213 | 51 | 202 | 5.2 | 6.1 | 0.00 | 0.46 | 0.46 | 93 | 1041.0 |
| 20260509190709 | 51 | 239 | 4.3 | 6.1 | 0.07 | 0.46 | 0.46 | 93 | 1041.0 |
| 20260509190207 | 51 | 228 | 5.2 | 6.1 | 0.12 | 0.46 | 0.46 | 92 | 1040.9 |
| 20260509185704 | 51 | 238 | 4.3 | 8.7 | 0.05 | 0.45 | 0.45 | 92 | 1041.0 |
| 20260509185200 | 51 | 247 | 2.6 | 7.8 | 0.07 | 0.44 | 0.44 | 93 | 1041.2 |
| 20260509184658 | 51 | 212 | 6.1 | 13.0 | 0.12 | 0.44 | 0.44 | 92 | 1041.1 |
| 20260509184155 | 51 | 228 | 2.6 | 7.8 | 0.12 | 0.43 | 0.43 | 92 | 1041.3 |
| 20260509183651 | 52 | 203 | 2.6 | 9.6 | 0.07 | 0.42 | 0.42 | 92 | 1040.9 |
| 20260509183146 | 52 | 216 | 7.0 | 9.6 | 0.05 | 0.41 | 0.41 | 93 | 1040.9 |
| 20260509182642 | 52 | 135 | 5.2 | 7.8 | 0.12 | 0.41 | 0.41 | 94 | 1041.2 |
| 20260509182140 | 52 | 264 | 5.2 | 8.7 | 0.12 | 0.40 | 0.40 | 93 | 1041.0 |
| 20260509181638 | 52 | 218 | 5.2 | 7.8 | 0.05 | 0.39 | 0.39 | 93 | 1040.9 |
| 20260509181135 | 52 | 211 | 3.5 | 7.0 | 0.07 | 0.38 | 0.38 | 93 | 1041.0 |
| 20260509180631 | 52 | 218 | 5.2 | 8.7 | 0.07 | 0.38 | 0.38 | 93 | 1041.0 |
| 20260509180128 | 52 | 202 | 4.3 | 8.7 | 0.00 | 0.37 | 0.37 | 93 | 1041.2 |
| 20260509175623 | 52 | 195 | 5.2 | 8.7 | 0.07 | 0.37 | 0.37 | 93 | 1041.1 |
| 20260509175121 | 52 | 204 | 7.0 | 11.3 | 0.12 | 0.37 | 0.37 | 93 | 1040.9 |
| 20260509174617 | 52 | 218 | 5.2 | 7.8 | 0.05 | 0.36 | 0.36 | 94 | 1041.2 |
| 20260509174112 | 52 | 235 | 2.6 | 9.6 | 0.00 | 0.35 | 0.35 | 94 | 1041.0 |
| 20260509173608 | 52 | 236 | 3.5 | 8.7 | 0.00 | 0.35 | 0.35 | 94 | 1041.1 |
| 20260509173104 | 52 | 254 | 3.5 | 6.1 | 0.00 | 0.35 | 0.35 | 94 | 1040.9 |
| 20260509172601 | 52 | 197 | 3.5 | 6.1 | 0.07 | 0.35 | 0.35 | 94 | 1040.9 |
| 20260509172056 | 52 | 212 | 3.5 | 5.2 | 0.07 | 0.35 | 0.35 | 95 | 1041.0 |
| 20260509171552 | 52 | 235 | 3.5 | 5.2 | 0.00 | 0.34 | 0.34 | 94 | 1041.1 |
| 20260509171049 | 52 | 214 | 3.5 | 5.2 | 0.05 | 0.34 | 0.34 | 95 | 1041.2 |
| 20260509170545 | 51 | 244 | 1.7 | 5.2 | 0.12 | 0.34 | 0.34 | 95 | 1041.0 |
| 20260509170041 | 52 | 262 | 0.9 | 3.5 | 0.12 | 0.33 | 0.33 | 95 | 1041.1 |
| 20260509165540 | 51 | 238 | 1.7 | 2.6 | 0.12 | 0.32 | 0.32 | 95 | 1040.8 |
| 20260509165035 | 51 | 254 | 4.3 | 5.2 | 0.19 | 0.31 | 0.31 | 95 | 1041.0 |
| 20260509164532 | 51 | 223 | 3.5 | 3.5 | 0.12 | 0.29 | 0.29 | 94 | 1041.2 |
| 20260509164027 | 51 | 248 | 1.7 | 3.5 | 0.17 | 0.28 | 0.28 | 93 | 1041.2 |
| 20260509163526 | 52 | 245 | 1.7 | 3.5 | 0.12 | 0.26 | 0.26 | 93 | 1041.1 |
| 20260509163020 | 52 | 250 | 1.7 | 2.6 | 0.07 | 0.25 | 0.25 | 93 | 1041.2 |
| 20260509162518 | 52 | 247 | 1.7 | 2.6 | 0.07 | 0.24 | 0.24 | 92 | 1041.2 |
| 20260509162014 | 52 | 255 | 1.7 | 1.7 | 0.00 | 0.23 | 0.23 | 92 | 1041.0 |
| 20260509161510 | 52 | 259 | 1.7 | 1.7 | 0.00 | 0.23 | 0.23 | 92 | 1041.1 |
| 20260509161005 | 52 | 251 | 0.9 | 2.6 | 0.00 | 0.23 | 0.23 | 92 | 1041.0 |
| 20260509160501 | 52 | 262 | 1.7 | 1.7 | 0.05 | 0.23 | 0.23 | 91 | 1041.2 |
| 20260509155956 | 52 | 254 | 0.9 | 2.6 | 0.05 | 0.23 | 0.23 | 92 | 1041.2 |
| 20260509155453 | 52 | 254 | 0.9 | 1.7 | 0.00 | 0.22 | 0.22 | 91 | 1041.2 |
| 20260509154949 | 52 | 258 | 0.0 | 1.7 | 0.00 | 0.22 | 0.22 | 92 | 1041.4 |
| 20260509154445 | 52 | 255 | 0.9 | 0.9 | 0.00 | 0.22 | 0.22 | 92 | 1041.3 |
| 20260509153943 | 52 | 268 | 0.0 | 1.7 | 0.00 | 0.22 | 0.22 | 92 | 1041.2 |
| 20260509153440 | 52 | 277 | 0.9 | 1.7 | 0.07 | 0.22 | 0.22 | 92 | 1041.3 |
| 20260509152937 | 51 | 266 | 0.0 | 0.9 | 0.07 | 0.22 | 0.22 | 92 | 1041.7 |
| 20260509152433 | 51 | 266 | 0.0 | 0.9 | 0.00 | 0.21 | 0.21 | 92 | 1041.5 |
| 20260509151930 | 51 | 264 | 0.0 | 0.0 | 0.00 | 0.21 | 0.21 | 92 | 1041.8 |
| 20260509151426 | 51 | 261 | 1.7 | 1.7 | 0.05 | 0.21 | 0.21 | 92 | 1041.8 |
| 20260509150924 | 51 | 261 | 0.0 | 0.0 | 0.05 | 0.21 | 0.21 | 93 | 1041.8 |
| 20260509150421 | 51 | 262 | 0.9 | 1.7 | 0.00 | 0.20 | 0.20 | 93 | 1041.4 |
| 20260509145919 | 52 | 253 | 0.9 | 1.7 | 0.00 | 0.20 | 0.20 | 93 | 1041.9 |
| 20260509145414 | 51 | 256 | 0.0 | 0.9 | 0.00 | 0.20 | 0.20 | 93 | 1042.0 |
| 20260509144910 | 51 | 262 | 0.0 | 1.7 | 0.07 | 0.20 | 0.20 | 93 | 1042.0 |
| 20260509144407 | 51 | 262 | 0.9 | 1.7 | 0.00 | 0.19 | 0.19 | 93 | 1042.1 |
| 20260509143904 | 51 | 266 | 0.0 | 0.9 | 0.00 | 0.19 | 0.19 | 93 | 1042.1 |
| 20260509143401 | 51 | 267 | 0.9 | 0.9 | 0.05 | 0.19 | 0.19 | 94 | 1041.9 |
| 20260509142857 | 50 | 274 | 0.9 | 1.7 | 0.05 | 0.19 | 0.19 | 94 | 1042.1 |
| 20260509142354 | 50 | 283 | 0.0 | 0.0 | 0.00 | 0.18 | 0.18 | 94 | 1042.2 |
| 20260509141849 | 51 | 279 | 0.0 | 0.9 | 0.07 | 0.18 | 0.18 | 94 | 1042.2 |
| 20260509141347 | 50 | 290 | 0.0 | 0.0 | 0.07 | 0.18 | 0.18 | 94 | 1041.9 |
| 20260509140843 | 50 | 288 | 0.0 | 0.9 | 0.05 | 0.17 | 0.17 | 94 | 1041.9 |
| 20260509140340 | 50 | 295 | 0.9 | 0.9 | 0.05 | 0.17 | 0.17 | 94 | 1041.9 |
| 20260509135838 | 50 | 295 | 0.0 | 0.0 | 0.00 | 0.16 | 0.16 | 94 | 1041.9 |
| 20260509135335 | 50 | 295 | 0.0 | 0.9 | 0.07 | 0.16 | 0.16 | 94 | 1041.8 |
| 20260509134832 | 50 | 295 | 0.9 | 0.9 | 0.07 | 0.16 | 0.16 | 94 | 1041.7 |
| 20260509134329 | 50 | 282 | 0.0 | 0.9 | 0.05 | 0.15 | 0.15 | 94 | 1041.8 |
| 20260509133826 | 50 | 307 | 0.9 | 2.6 | 0.05 | 0.15 | 0.15 | 94 | 1041.4 |
| 20260509133323 | 50 | 308 | 0.9 | 0.9 | 0.00 | 0.14 | 0.14 | 94 | 1041.7 |
| 20260509132822 | 50 | 314 | 0.9 | 3.5 | 0.07 | 0.14 | 0.14 | 94 | 1041.3 |
| 20260509132320 | 50 | 311 | 2.6 | 3.5 | 0.07 | 0.14 | 0.14 | 94 | 1041.3 |
| 20260509131816 | 50 | 317 | 1.7 | 1.7 | 0.07 | 0.13 | 0.13 | 94 | 1041.5 |
| 20260509131313 | 50 | 307 | 0.0 | 1.7 | 0.07 | 0.13 | 0.13 | 94 | 1041.4 |
| 20260509130810 | 50 | 301 | 0.0 | 0.0 | 0.05 | 0.12 | 0.12 | 94 | 1041.4 |
| 20260509130305 | 50 | 302 | 0.9 | 2.6 | 0.05 | 0.12 | 0.12 | 94 | 1041.7 |
| 20260509125802 | 50 | 296 | 0.0 | 1.7 | 0.07 | 0.11 | 0.11 | 94 | 1041.3 |
| 20260509125259 | 50 | 303 | 1.7 | 1.7 | 0.07 | 0.11 | 0.11 | 94 | 1041.4 |
| 20260509124755 | 50 | 309 | 1.7 | 2.6 | 0.00 | 0.10 | 0.10 | 94 | 1041.5 |
| 20260509124252 | 50 | 304 | 1.7 | 2.6 | 0.05 | 0.10 | 0.10 | 94 | 1041.5 |
| 20260509123750 | 50 | 288 | 0.0 | 0.0 | 0.05 | 0.10 | 0.10 | 94 | 1041.7 |
| 20260509123247 | 50 | 291 | 0.0 | 0.0 | 0.00 | 0.09 | 0.09 | 94 | 1041.5 |
| 20260509122743 | 49 | 295 | 0.0 | 0.0 | 0.00 | 0.09 | 0.09 | 95 | 1041.4 |
| 20260509122240 | 49 | 296 | 0.0 | 0.0 | 0.00 | 0.09 | 0.09 | 95 | 1041.5 |
| 20260509121737 | 49 | 286 | 0.9 | 1.7 | 0.00 | 0.09 | 0.09 | 95 | 1041.5 |
| 20260509121234 | 49 | 293 | 0.9 | 1.7 | 0.00 | 0.09 | 0.09 | 95 | 1041.5 |
| 20260509120732 | 49 | 290 | 0.0 | 0.0 | 0.00 | 0.09 | 0.09 | 95 | 1041.5 |
| 20260509120229 | 49 | 264 | 0.0 | 0.0 | 0.00 | 0.09 | 0.09 | 95 | 1041.8 |
| 20260509115727 | 48 | 264 | 0.0 | 1.7 | 0.00 | 0.09 | 0.09 | 95 | 1041.4 |
| 20260509115224 | 48 | 346 | 0.9 | 1.7 | 0.00 | 0.09 | 0.09 | 95 | 1041.8 |
| 20260509114722 | 48 | 329 | 0.9 | 3.5 | 0.00 | 0.09 | 0.09 | 95 | 1041.5 |
| 20260509114221 | 48 | 323 | 2.6 | 5.2 | 0.00 | 0.09 | 0.09 | 95 | 1041.5 |
| 20260509113719 | 48 | 317 | 0.9 | 2.6 | 0.00 | 0.09 | 0.09 | 95 | 1041.7 |
| 20260509113216 | 48 | 292 | 0.0 | 0.9 | 0.00 | 0.09 | 0.09 | 95 | 1041.8 |
| 20260509112713 | 48 | 303 | 1.7 | 2.6 | 0.00 | 0.09 | 0.09 | 95 | 1041.8 |
| 20260509112210 | 47 | 316 | 1.7 | 3.5 | 0.00 | 0.09 | 0.09 | 95 | 1041.8 |
| 20260509111707 | 47 | 307 | 1.7 | 2.6 | 0.00 | 0.09 | 0.09 | 95 | 1041.7 |
| 20260509111204 | 47 | 339 | 3.5 | 3.5 | 0.00 | 0.09 | 0.09 | 95 | 1041.9 |
| 20260509110701 | 47 | 331 | 3.5 | 6.1 | 0.00 | 0.09 | 0.09 | 95 | 1041.5 |
| 20260509110157 | 46 | 333 | 6.1 | 8.7 | 0.00 | 0.09 | 0.09 | 95 | 1041.8 |
| 20260509105656 | 46 | 344 | 4.3 | 7.0 | 0.00 | 0.09 | 0.09 | 95 | 1041.8 |
| 20260509105153 | 46 | 325 | 3.5 | 7.0 | 0.00 | 0.09 | 0.09 | 95 | 1041.7 |
| 20260509104650 | 46 | 325 | 3.5 | 3.5 | 0.00 | 0.09 | 0.09 | 95 | 1041.9 |
| 20260509104147 | 47 | 351 | 0.9 | 1.7 | 0.00 | 0.09 | 0.09 | 95 | 1041.9 |
| 20260509103645 | 46 | 345 | 1.7 | 2.6 | 0.00 | 0.09 | 0.09 | 95 | 1042.0 |
| 20260509103142 | 47 | 42 | 1.7 | 2.6 | 0.00 | 0.09 | 0.09 | 95 | 1042.0 |
| 20260509102640 | 47 | 329 | 1.7 | 1.7 | 0.00 | 0.09 | 0.09 | 95 | 1042.1 |
| 20260509102137 | 47 | 309 | 0.0 | 1.7 | 0.00 | 0.09 | 0.09 | 95 | 1042.1 |
| 20260509101633 | 47 | 314 | 3.5 | 3.5 | 0.00 | 0.09 | 0.09 | 95 | 1042.4 |
| 20260509101130 | 47 | 320 | 3.5 | 3.5 | 0.00 | 0.09 | 0.09 | 95 | 1042.1 |
| 20260509100627 | 47 | 304 | 1.7 | 3.5 | 0.00 | 0.09 | 0.09 | 95 | 1042.0 |
| 20260509100124 | 47 | 298 | 0.9 | 2.6 | 0.00 | 0.09 | 0.09 | 95 | 1042.0 |
| 20260509095620 | 47 | 298 | 2.6 | 5.2 | 0.00 | 0.09 | 0.09 | 95 | 1042.2 |
| 20260509095118 | 46 | 320 | 3.5 | 5.2 | 0.00 | 0.09 | 0.09 | 95 | 1042.2 |
| 20260509094614 | 46 | 319 | 2.6 | 3.5 | 0.00 | 0.09 | 0.09 | 95 | 1041.8 |
| 20260509094111 | 46 | 323 | 1.7 | 1.7 | 0.00 | 0.09 | 0.09 | 95 | 1042.1 |
| 20260509093610 | 46 | 337 | 1.7 | 2.6 | 0.00 | 0.09 | 0.09 | 95 | 1042.0 |
| 20260509093106 | 46 | 354 | 2.6 | 3.5 | 0.00 | 0.09 | 0.09 | 95 | 1042.2 |
| 20260509092604 | 46 | 317 | 3.5 | 5.2 | 0.00 | 0.09 | 0.09 | 95 | 1042.3 |
| 20260509092103 | 46 | 319 | 2.6 | 2.6 | 0.00 | 0.09 | 0.09 | 95 | 1042.0 |
| 20260509091600 | 46 | 297 | 0.0 | 0.0 | 0.00 | 0.09 | 0.09 | 95 | 1042.2 |
| 20260509091056 | 46 | 297 | 0.0 | 0.0 | 0.00 | 0.09 | 0.09 | 95 | 1042.3 |
| 20260509090554 | 46 | 297 | 0.0 | 0.0 | 0.00 | 0.09 | 0.09 | 95 | 1042.2 |
| 20260509090052 | 46 | 299 | 0.9 | 0.9 | 0.00 | 0.09 | 0.09 | 95 | 1042.3 |
| 20260509085548 | 46 | 300 | 0.0 | 0.0 | 0.00 | 0.09 | 0.09 | 95 | 1042.6 |
| 20260509085044 | 46 | 291 | 0.0 | 0.0 | 0.00 | 0.09 | 0.09 | 95 | 1042.7 |
| 20260509084542 | 46 | 291 | 0.0 | 0.0 | 0.00 | 0.09 | 0.09 | 95 | 1042.9 |
| 20260509084039 | 46 | 291 | 0.0 | 0.0 | 0.00 | 0.09 | 0.09 | 95 | 1042.8 |
| 20260509083536 | 46 | 291 | 0.9 | 1.7 | 0.07 | 0.09 | 0.09 | 95 | 1042.6 |
| 20260509083032 | 46 | 299 | 0.9 | 1.7 | 0.07 | 0.09 | 0.09 | 95 | 1042.7 |
| 20260509082530 | 46 | 299 | 0.0 | 1.7 | 0.00 | 0.08 | 0.08 | 95 | 1042.7 |
| 20260509082027 | 46 | 299 | 0.0 | 0.9 | 0.00 | 0.08 | 0.08 | 95 | 1042.8 |
| 20260509081524 | 46 | 319 | 2.6 | 2.6 | 0.00 | 0.08 | 0.08 | 95 | 1042.8 |
| 20260509081021 | 46 | 313 | 2.6 | 2.6 | 0.00 | 0.08 | 0.08 | 95 | 1042.5 |
| 20260509080519 | 46 | 302 | 2.6 | 2.6 | 0.00 | 0.08 | 0.08 | 95 | 1042.6 |
| 20260509080017 | 46 | 281 | 0.0 | 0.0 | 0.00 | 0.08 | 0.08 | 95 | 1042.6 |
| 20260509075514 | 46 | 281 | 0.0 | 0.0 | 0.00 | 0.08 | 0.08 | 95 | 1042.6 |
| 20260509075012 | 46 | 281 | 0.0 | 0.0 | 0.00 | 0.08 | 0.08 | 95 | 1042.4 |
| 20260509074509 | 47 | 281 | 0.0 | 1.7 | 0.00 | 0.08 | 0.08 | 95 | 1042.5 |
| 20260509074005 | 47 | 302 | 0.9 | 1.7 | 0.00 | 0.08 | 0.08 | 95 | 1042.3 |
| 20260509073502 | 47 | 306 | 0.9 | 2.6 | 0.05 | 0.08 | 0.08 | 95 | 1042.5 |
| 20260509072958 | 47 | 292 | 0.9 | 2.6 | 0.05 | 0.08 | 0.08 | 95 | 1042.3 |
| 20260509072455 | 46 | 307 | 1.7 | 2.6 | 0.07 | 0.07 | 0.07 | 95 | 1042.7 |
| 20260509071952 | 46 | 273 | 0.0 | 0.0 | 0.07 | 0.07 | 0.07 | 95 | 1042.5 |
| 20260509071448 | 46 | 272 | 0.0 | 0.0 | 0.00 | 0.06 | 0.06 | 95 | 1042.8 |
| 20260509070946 | 46 | 272 | 0.0 | 0.0 | 0.00 | 0.06 | 0.06 | 95 | 1042.6 |
| 20260509070443 | 46 | 291 | 0.0 | 0.0 | 0.00 | 0.06 | 0.06 | 95 | 1042.7 |
| 20260509065938 | 46 | 295 | 0.0 | 0.9 | 0.05 | 0.06 | 0.06 | 95 | 1042.6 |
| 20260509065434 | 47 | 262 | 0.9 | 0.9 | 0.05 | 0.06 | 0.06 | 94 | 1042.9 |
| 20260509064931 | 47 | 283 | 0.9 | 0.9 | 0.00 | 0.05 | 0.05 | 94 | 1042.8 |
| 20260509064429 | 46 | 285 | 0.9 | 1.7 | 0.00 | 0.05 | 0.05 | 94 | 1042.9 |
| 20260509063927 | 46 | 271 | 0.0 | 0.0 | 0.07 | 0.05 | 0.05 | 94 | 1043.3 |
| 20260509063422 | 46 | 271 | 0.0 | 0.0 | 0.07 | 0.05 | 0.05 | 94 | 1043.2 |
| 20260509062919 | 46 | 266 | 0.9 | 0.9 | 0.00 | 0.04 | 0.04 | 94 | 1043.5 |
| 20260509062416 | 46 | 268 | 0.0 | 0.0 | 0.05 | 0.04 | 0.04 | 94 | 1043.4 |
| 20260509061914 | 46 | 257 | 0.9 | 1.7 | 0.05 | 0.04 | 0.04 | 94 | 1043.5 |
| 20260509061412 | 46 | 271 | 0.0 | 0.9 | 0.00 | 0.03 | 0.03 | 93 | 1043.3 |
| 20260509060908 | 46 | 266 | 0.0 | 1.7 | 0.07 | 0.03 | 0.03 | 93 | 1043.4 |
| 20260509060405 | 46 | 259 | 1.7 | 2.6 | 0.07 | 0.03 | 0.03 | 92 | 1043.5 |
| 20260509055900 | 46 | 215 | 2.6 | 2.6 | 0.00 | 0.02 | 0.02 | 91 | 1043.5 |
| 20260509055356 | 46 | 287 | 0.0 | 0.0 | 0.05 | 0.02 | 0.02 | 91 | 1042.9 |
| 20260509054853 | 46 | 302 | 1.7 | 2.6 | 0.05 | 0.02 | 0.02 | 90 | 1043.0 |
| 20260509054350 | 46 | 301 | 0.0 | 0.9 | 0.00 | 0.01 | 0.01 | 90 | 1043.0 |
| 20260509053848 | 46 | 310 | 2.6 | 3.5 | 0.00 | 0.01 | 0.01 | 91 | 1042.8 |
| 20260509053345 | 46 | 301 | 1.7 | 5.2 | 0.00 | 0.01 | 0.01 | 91 | 1042.6 |
| 20260509052843 | 46 | 330 | 4.3 | 5.2 | 0.00 | 0.01 | 0.01 | 91 | 1042.6 |
| 20260509052340 | 46 | 329 | 3.5 | 3.5 | 0.00 | 0.01 | 0.01 | 91 | 1042.7 |
| 20260509051838 | 46 | 298 | 0.0 | 0.0 | 0.00 | 0.01 | 0.01 | 90 | 1042.9 |
| 20260509051336 | 46 | 294 | 0.0 | 0.9 | 0.00 | 0.01 | 0.01 | 90 | 1043.1 |
| 20260509050832 | 46 | 331 | 0.0 | 1.7 | 0.00 | 0.01 | 0.01 | 91 | 1043.1 |
| 20260509050329 | 46 | 298 | 0.9 | 0.9 | 0.07 | 0.01 | 0.01 | 91 | 1042.8 |
| 20260509045826 | 46 | 302 | 1.7 | 5.2 | 0.07 | 0.01 | 0.01 | 91 | 1042.7 |
| 20260509045323 | 46 | 333 | 2.6 | 3.5 | 0.07 | 0.01 | 0.01 | 90 | 1043.0 |